Overview Statistics Trail Chart Weather Telemetry Raw packets
 

This is the latest recevied weather packets stored in our database for station/object KD5FHA. If no packets are shown the sender has not sent any weather packets the latest 10 day(s).

<< 109 110 111 112 113 114 >>
Time Temp. Humidity Pressure Rain* Wind** Luminosity Snow
1787783496 39.44° C 40% 1013.5 hPa 0 mm - 347 W/m² -
1787783191 38.89° C 40% 1013.9 hPa 0 mm - 381 W/m² -
1787782886 38.33° C 41% 1013.9 hPa 0 mm - 403 W/m² -
1787782585 38.89° C 40% 1014 hPa 0 mm - 402 W/m² -
1787782280 39.44° C 39% 1013.9 hPa 0 mm - 405 W/m² -
1787781982 38.89° C 40% 1014.1 hPa 0 mm - 426 W/m² -
1787781671 37.78° C 40% 1014.2 hPa 0 mm - 426 W/m² -
1787781368 38.33° C 40% 1014.3 hPa 0 mm - 428 W/m² -
1787781068 38.89° C 39% 1014.3 hPa 0 mm - 472 W/m² -
1787780767 38.33° C 39% 1014.5 hPa 0 mm - 454 W/m² -
1787780467 37.78° C 41% 1014.4 hPa 0 mm - 467 W/m² -
1787780163 38.33° C 42% 1014.4 hPa 0 mm - 505 W/m² -
1787779858 37.78° C 43% 1014.4 hPa 0 mm - 508 W/m² -
1787779558 38.89° C 42% 1014.5 hPa 0 mm - 508 W/m² -
1787779253 37.78° C 43% 1014.7 hPa 0 mm - 573 W/m² -
1787778953 37.78° C 43% 1014.7 hPa 0 mm - 562 W/m² -
1787778648 37.22° C 44% 1014.8 hPa 0 mm - 559 W/m² -
1787778343 36.11° C 47% 1014.9 hPa 0 mm - 622 W/m² -
1787778040 36.11° C 48% 1015.1 hPa 0 mm - 627 W/m² -
1787777739 35.56° C 49% 1015.1 hPa 0 mm - 635 W/m² -
1787777436 35.56° C 51% 1015.4 hPa 0 mm - 353 W/m² -
1787777136 35.56° C 50% 1015.2 hPa 0 mm - 313 W/m² -
1787776834 36.11° C 49% 1015.5 hPa 0 mm - 398 W/m² -
1787776534 35° C 52% 1015.7 hPa 0 mm - 640 W/m² -
1787776233 35° C 52% 1015.8 hPa 0 mm - 332 W/m² -

* Rain latest hour (hover to see other rain measurements)
** Current wind speed in m/s (hover to see current wind gust speed)